Pierre, SD

3:22 PM CST on November 21, 2019 (GMT -0600)
Pierre Regional

Weather History for KPIR - June, 2019

Change the Weather History Date:

Thursday, June 13, 2019

  Actual Average Record
Temperature  
Mean Temperature 64 °F 67 °F  
Max Temperature 82 °F 79 °F 102 °F (1979)
Min Temperature 45 °F 55 °F 38 °F (1969)
Degree Days  
Heating Degree Days 1    
Month to date heating degree days 27  
Since 1 June heating degree days 27  
Since 1 July heating degree days 8153  
Cooling Degree Days 0    
Month to date cooling degree days 39  
Year to date cooling degree days 50  
Since 1 June cooling degree days 39  
Growing Degree Days 14 (Base 50)    
Moisture  
Dew Point 52 °F    
Average Humidity 65    
Maximum Humidity 96    
Minimum Humidity 31    
Precipitation  
Precipitation 0.00 in 0.12 in 1.53 in (2017)
Month to date precipitation 0.01 1.69  
Year to date precipitation 13.86 8.89  
Snow  
Snow 0.00 in 0.00 in 0.00 in ()
Month to date snowfall 0.0 0.0  
Since 1 July snowfall 66.3 31.9  
Snow Depth 0.00 in    
Sea Level Pressure  
Sea Level Pressure 29.86 in    
Wind  
Wind Speed 7 mph ()    
Max Wind Speed 18 mph    
Max Gust Speed 25 mph    
Visibility 10.0 miles    
Events      
T = Trace of Precipitation, MM = Missing Value Source: Averaged Metar Reports

Daily Weather History Graph

Daily Weather History Graph

Search for Another Location

Airport or City:

Astronomy

Jun. 13, 2019 Rise Set
Actual Time 5:56 AM CDT 9:26 PM CDT
Civil Twilight 5:19 AM CDT 10:02 PM CDT
Nautical Twilight 4:31 AM CDT 10:51 PM CDT
Astronomical Twilight 3:29 AM CDT 11:53 PM CDT
Moon 5:34 PM CDT (6/13) 3:53 AM CDT (6/13)
Length of Visible Light 16h 43m
Length of Day
15h 29m
Waxing Gibbous, 85% of the Moon is Illuminated
Jun 13
Waxing Gibbous
Jun 17
Full
Jun 25
Last Quarter
Jul 2
New
Jul 9
First Quarter

Hourly Weather History & Observations

Time (CDT) Temp. Windchill Dew Point Humidity Pressure Visibility Wind Dir Wind Speed Gust Speed Precip Events Conditions
12:53 AM 50.0 °F - 46.9 °F 89% 30.03 in 10.0 mi SE 5.8 mph - N/A   Clear
1:53 AM 51.1 °F - 48.0 °F 89% 30.01 in 10.0 mi SE 4.6 mph - N/A   Clear
2:53 AM 50.0 °F - 46.9 °F 89% 29.99 in 10.0 mi East 5.8 mph - N/A   Clear
3:53 AM 46.0 °F 43.9 °F 45.0 °F 96% 29.99 in 10.0 mi SE 4.6 mph - N/A   Clear
4:53 AM 48.0 °F - 46.9 °F 96% 29.98 in 10.0 mi ESE 5.8 mph - N/A   Clear
5:53 AM 48.0 °F - 46.9 °F 96% 29.97 in 10.0 mi ESE 5.8 mph - N/A   Clear
6:53 AM 51.1 °F - 48.9 °F 92% 29.96 in 10.0 mi SE 8.1 mph - N/A   Clear
7:53 AM 55.0 °F - 51.1 °F 86% 29.96 in 10.0 mi SE 9.2 mph - N/A   Clear
8:53 AM 60.1 °F - 52.0 °F 75% 29.95 in 10.0 mi SE 9.2 mph - N/A   Clear
9:53 AM 64.9 °F - 53.1 °F 65% 29.93 in 10.0 mi SE 10.4 mph - N/A   Clear
10:53 AM 70.0 °F - 55.0 °F 59% 29.91 in 10.0 mi SE 10.4 mph - N/A   Clear
11:53 AM 75.9 °F - 55.0 °F 48% 29.88 in 10.0 mi SE 11.5 mph - N/A   Clear
12:53 PM 78.1 °F - 53.1 °F 42% 29.86 in 10.0 mi SE 15.0 mph 20.7 mph N/A   Clear
1:53 PM 80.1 °F - 52.0 °F 38% 29.84 in 10.0 mi SSE 15.0 mph 20.7 mph N/A   Clear
2:53 PM 81.0 °F - 52.0 °F 36% 29.82 in 10.0 mi SSE 9.2 mph 24.2 mph N/A   Clear
3:53 PM 82.0 °F - 48.9 °F 31% 29.80 in 10.0 mi SSW 12.7 mph 21.9 mph N/A   Clear
4:53 PM 82.9 °F - 51.1 °F 33% 29.78 in 10.0 mi South 11.5 mph - N/A   Clear
5:53 PM 82.0 °F - 52.0 °F 35% 29.76 in 10.0 mi SSE 11.5 mph - N/A   Clear
6:53 PM 78.1 °F - 59.0 °F 52% 29.74 in 10.0 mi SE 5.8 mph - N/A   Clear
7:53 PM 73.9 °F - 59.0 °F 59% 29.73 in 10.0 mi SE 8.1 mph - N/A   Clear
8:53 PM 73.0 °F - 55.9 °F 55% 29.70 in 10.0 mi ESE 10.4 mph - N/A   Clear
9:53 PM 69.1 °F - 55.9 °F 63% 29.71 in 10.0 mi SE 8.1 mph - N/A   Clear
10:53 PM 66.9 °F - 57.0 °F 70% 29.70 in 10.0 mi ESE 8.1 mph - N/A   Clear
11:53 PM 64.9 °F - 55.9 °F 73% 29.68 in 10.0 mi ESE 6.9 mph - N/A   Clear